Tracking 30743 objects as of 20-Jun-2025
HD Live streaming from Space Station
objects crossing your sky now

STARLINK-5293

Track STARLINK-5293 now!
10-day predictions
STARLINK-5293 is classified as:


NORAD ID: 55295
Int'l Code: 2023-010AC
Perigee: 577.2 km
Apogee: 581.2 km
Inclination: 70.0 °
Period: 96.1 minutes
Semi major axis: 6950 km
RCS: Unknown
Launch date: January 19, 2023
Source: United States (US)
Launch site: AIR FORCE WESTERN TEST RANGE (AFWTR)
Your satellite tracking list
Your tracking list is empty




NASA's NSSDC Master Catalog

Two Line Element Set (TLE):
1 55295U 23010AC  25170.46190671 -.00000185  00000-0 -77460-5 0  9996
2 55295  69.9999 348.2793 0002914 265.2457  94.8369 14.98329321133358
Source of the keplerian elements: AFSPC